Location: Celina Elementary School
(33.3262°N, 96.7767°W)
Time: 09:14:24
(UTC+00:00)

Delta 2 Rocket - Pass Details

Date: 26 November 2021
Orbit: 415 x 796 km, 35.6° (Epoch: 19 January)

Event Time Altitude Azimuth Distance (km) Brightness Sun altitude
Exits shadow 12:07:58 19° 275° (W) 1,376 4.7 -12.7°
Maximum altitude 12:10:54 57° 201° (SSW) 703 3.8 -12.1°
Drops below altitude 10° 12:15:36 10° 123° (ESE) 2,062 7.6 -11.2°
Sets 12:18:10 0° 119° (ESE) 3,041 9.1 -10.6°
